Tracking 28125 objects as of 4-Oct-2023
HD Live streaming from Space Station
objects crossing your sky now

THORAD AGENA D DEB

Track THORAD AGENA D DEB now!
10-day predictions


NORAD ID: 4741
Int'l Code: 1970-025CQ
Perigee: 1,076.0 km
Apogee: 2,350.6 km
Inclination: 100.3 °
Period: 120.6 minutes
Semi major axis: 8084 km
RCS: 0.0817 m2 (small)
Launch date: April 8, 1970
Source: United States (US)
Launch site: AIR FORCE WESTERN TEST RANGE (AFWTR)

Note: This is SATELLITE DEBRIS
Your satellite tracking list
Your tracking list is empty




NASA's NSSDC Master Catalog

Two Line Element Set (TLE):
1 04741U 70025CQ  23276.31554949 -.00000255  00000-0 -12019-2 0  9999
2 04741 100.2862 205.4511 0788333 278.3708 245.7775 11.94375450331241
Source of the keplerian elements: AFSPC